Lapse_Rate
7.8 7.9 7.9 8.2 7.8 7.2 6.7 7.0 7.0 7.4 7.4 7.2 7.6 6.7 6.4 6.3 6.5 6.5 5.9 6.0 5.9 5.8 5.8 6.0 6.3 6.6 6.8 7.0 6.9 6.8 6.7 6.7 6.6 6.5 6.3 6.2 6.1 6.1 6.2 6.0 5.9 5.9 5.9 5.7 5.7 5.5 5.3 5.3 5.6
7.8 7.7 7.6 7.5 7.7 7.4 6.7 7.0 7.3 6.8 6.7 7.2 7.4 6.8 6.7 6.7 6.2 6.3 6.3 6.2 5.7 5.8 5.8 6.0 6.4 6.5 6.7 6.9 7.0 6.9 7.1 7.1 6.9 6.8 6.7 6.5 6.3 6.2 6.1 6.0 5.9 6.0 6.0 5.9 5.7 5.7 5.6 5.6 5.7
8.2 8.2 7.6 6.9 7.0 7.1 6.5 7.0 6.8 6.8 7.1 7.1 7.0 7.0 6.9 6.6 6.2 6.0 5.9 5.8 5.8 5.8 6.0 6.0 6.3 6.5 6.8 7.0 7.1 7.1 7.3 7.3 7.2 7.1 7.0 6.8 6.7 6.5 6.3 6.1 6.0 6.1 6.1 6.0 5.8 5.7 5.7 6.0 5.8
8.5 8.2 8.1 8.2 7.6 7.0 6.8 6.9 7.4 7.4 7.2 6.9 6.8 6.7 5.8 5.9 5.5 5.7 5.6 5.9 6.1 5.9 6.2 6.2 6.4 6.6 6.9 6.9 6.9 6.9 7.0 7.1 7.1 7.1 7.0 6.9 6.8 6.7 6.5 6.3 6.1 5.9 6.0 5.9 6.0 5.9 5.7 5.9 5.8
8.4 8.8 8.4 8.4 7.9 7.2 6.9 7.5 7.7 7.8 7.2 6.9 6.7 6.5 6.4 5.3 5.3 5.4 5.5 6.1 6.2 6.1 6.2 6.4 6.5 6.6 6.9 6.8 6.8 6.8 6.8 6.8 6.8 6.7 6.6 6.7 6.7 6.7 6.5 6.4 6.4 6.3 6.2 6.1 6.2 6.1 5.9 5.8 5.7
8.3 8.0 8.5 7.7 8.6 8.0 7.7 7.1 7.2 7.3 7.3 7.3 7.0 6.9 6.5 6.1 6.1 5.7 5.8 6.4 6.4 6.4 6.3 6.3 6.5 6.6 6.8 6.7 6.7 6.7 6.7 6.7 6.7 6.6 6.7 6.6 6.5 6.5 6.5 6.4 6.2 6.4 6.5 6.4 6.0 6.0 6.0 5.6 5.8
8.0 7.8 7.7 8.0 8.4 8.4 7.9 7.6 7.5 7.7 7.5 7.4 7.1 6.7 6.7 6.2 6.5 6.0 6.0 6.0 6.2 6.3 6.3 6.2 6.3 6.4 6.5 6.6 6.5 6.6 6.6 6.7 6.8 6.6 6.6 6.7 6.6 6.4 6.5 6.4 6.3 6.2 6.3 6.5 6.4 6.1 6.0 5.6 5.7
8.0 8.5 8.4 8.5 8.7 8.6 8.2 8.1 7.7 8.2 7.7 7.7 7.2 6.8 6.9 6.6 6.3 6.2 6.2 6.2 6.0 6.4 6.4 6.2 5.9 6.1 6.4 6.5 6.4 6.5 6.6 6.6 6.7 6.7 6.6 6.7 6.8 6.6 6.4 6.3 6.3 6.2 6.3 6.3 6.2 6.1 6.1 5.9 5.7
7.4 8.5 8.3 8.5 8.8 8.8 8.6 8.5 8.1 8.3 8.1 7.7 7.6 7.2 6.9 6.8 7.0 6.6 6.5 6.3 6.3 6.2 6.1 6.2 6.1 6.1 6.2 6.4 6.4 6.5 6.5 6.5 6.4 6.7 6.7 6.6 6.6 6.6 6.5 6.3 6.1 6.2 6.4 6.4 6.2 6.1 6.1 6.1 5.9
8.7 8.9 8.8 8.7 8.7 8.8 8.7 8.3 8.3 8.2 8.2 8.1 8.0 7.5 6.9 6.9 7.2 7.0 6.7 6.5 6.6 6.5 6.1 6.1 6.2 6.2 6.1 6.2 6.4 6.5 6.6 6.6 6.5 6.6 6.8 6.6 6.6 6.5 6.3 6.3 6.1 6.1 6.1 6.3 6.4 6.0 6.0 5.8 5.7
8.9 9.1 9.4 9.5 8.9 9.2 8.5 8.2 8.2 8.3 8.3 8.1 8.0 7.8 7.2 7.1 7.2 7.2 7.0 7.0 6.6 6.3 6.4 6.4 6.5 6.4 6.2 6.3 6.2 6.3 6.4 6.5 6.5 6.5 6.6 6.6 6.7 6.7 6.4 6.4 6.1 6.0 6.1 6.0 6.1 6.1 5.9 6.0 5.9
9.3 9.2 8.8 9.2 9.3 9.1 8.5 8.2 8.1 8.0 8.2 8.4 8.1 7.8 7.6 7.3 7.3 7.0 7.1 7.2 7.2 7.1 6.7 6.3 6.1 6.0 6.0 6.2 6.2 6.2 6.2 6.2 6.2 6.3 6.3 6.3 6.5 6.7 6.5 6.1 6.3 6.1 5.9 6.0 6.0 6.0 5.8 5.8 5.7
8.9 9.0 8.9 8.7 9.0 8.8 8.4 8.3 8.2 8.1 8.1 8.1 8.2 7.6 7.7 7.4 7.2 6.8 7.0 7.1 6.9 6.9 6.7 6.7 6.6 6.2 6.0 5.8 6.0 6.0 6.0 6.0 5.9 5.8 5.9 6.1 6.0 6.1 6.3 6.0 6.1 6.2 6.0 6.1 5.8 5.6 5.6 5.4 5.7
8.3 8.6 8.8 9.0 8.8 8.9 8.8 8.5 8.5 8.2 8.0 8.1 8.2 7.9 7.7 7.5 7.2 6.7 7.0 6.9 6.5 6.3 6.4 6.4 6.1 6.2 6.1 6.0 5.9 5.8 5.7 5.6 5.8 5.8 5.9 6.0 6.0 6.0 6.0 6.1 6.0 6.0 6.1 6.0 5.9 5.8 5.5 5.5 5.6
8.3 8.8 8.9 8.8 8.7 9.0 8.9 8.6 8.4 8.4 8.2 8.2 7.9 7.8 7.8 7.8 7.2 6.7 6.6 6.7 6.5 6.3 6.0 6.0 6.1 6.1 5.8 5.7 5.9 6.0 6.1 5.8 6.0 5.8 5.8 5.8 5.9 6.2 5.9 6.0 6.0 5.9 6.0 6.2 6.1 5.8 5.5 5.5 5.6
8.8 8.7 8.9 9.1 8.8 8.6 9.1 8.8 8.6 8.0 8.2 8.1 7.8 7.9 7.8 7.4 7.0 6.8 6.8 6.4 6.3 6.4 6.3 5.9 5.9 6.5 5.7 5.5 5.7 5.7 5.9 6.1 6.0 5.9 6.1 6.1 6.2 6.2 6.0 5.9 5.5 5.5 5.8 5.9 5.9 5.8 5.5 5.5 5.7
8.8 9.0 9.0 9.0 9.2 9.1 9.2 9.0 8.2 8.1 8.1 8.0 8.1 8.2 7.9 7.3 6.9 7.0 7.1 6.8 6.6 6.4 6.2 5.5 5.2 5.1 6.0 6.0 5.7 5.7 5.9 6.4 6.4 6.2 6.0 6.2 6.2 6.1 5.8 5.8 5.6 5.4 5.3 5.6 5.6 5.6 5.6 5.4 5.3
8.7 8.9 9.2 9.1 9.3 9.3 9.3 9.2 8.7 8.4 8.2 8.4 8.1 8.4 8.0 7.7 7.4 7.3 7.5 6.9 6.8 6.3 6.0 6.0 5.9 6.5 6.1 5.9 5.8 5.5 5.9 6.3 6.3 6.1 6.2 6.2 6.3 5.9 5.7 5.8 5.8 5.5 5.3 5.5 5.3 5.4 5.5 5.7 5.5
8.3 9.0 9.5 9.3 9.5 9.5 9.5 9.4 8.8 8.7 8.4 8.3 8.4 8.5 8.2 8.0 7.5 7.4 7.5 7.4 7.0 6.1 5.6 6.0 6.4 6.7 6.3 6.5 5.3 5.6 6.1 6.2 6.3 6.1 6.2 6.1 5.7 5.7 5.8 5.9 5.7 5.7 5.7 5.4 5.4 5.1 5.3 5.6 5.6
8.5 8.8 9.3 9.6 9.4 9.4 9.4 9.3 9.5 9.3 9.0 8.7 8.8 8.6 8.2 8.2 7.8 7.5 7.5 7.3 6.6 6.2 6.4 6.3 6.7 6.8 6.1 6.2 6.1 5.9 6.4 6.3 6.4 6.3 6.3 6.1 5.7 5.5 5.6 5.8 5.6 5.3 5.3 5.4 5.4 5.3 5.1 5.3 5.4
8.4 8.9 9.2 9.1 9.2 9.2 9.0 9.1 9.0 9.3 9.0 9.0 8.9 8.7 8.4 8.3 8.3 7.9 7.7 7.4 7.0 6.8 6.6 6.3 6.9 6.6 6.2 6.2 6.4 6.5 6.4 6.4 6.8 6.6 6.2 5.8 5.5 5.3 5.3 5.6 5.6 5.3 5.4 5.4 5.3 5.4 5.4 5.4 5.3
8.2 8.9 8.8 8.9 9.0 9.0 8.9 8.4 9.0 9.1 9.2 8.9 8.8 8.5 8.7 8.5 8.5 8.0 7.7 7.6 7.3 7.2 6.8 6.7 6.9 6.7 6.3 6.5 6.1 6.3 6.5 6.7 6.4 6.5 5.9 5.6 5.4 5.3 5.4 5.3 5.4 5.4 5.3 5.3 5.3 5.4 5.4 5.6 5.5
8.5 8.5 8.5 8.6 8.7 8.7 8.8 8.6 8.8 8.7 8.7 8.8 9.1 8.7 8.6 8.6 8.4 8.0 7.7 7.8 7.4 7.6 7.4 7.1 7.1 6.8 6.6 6.6 6.1 6.0 6.1 6.3 6.4 6.2 5.8 5.5 5.1 5.3 5.6 5.6 5.3 5.4 5.5 5.5 5.4 5.6 5.6 5.5 5.5
8.6 8.4 8.4 8.6 8.6 8.2 8.8 8.6 8.9 9.0 9.1 9.0 8.6 8.5 8.8 8.6 8.4 7.9 7.8 7.8 7.8 7.9 7.8 7.4 7.2 7.0 6.8 6.8 6.6 6.3 6.4 6.5 6.4 5.9 5.8 5.7 5.6 5.7 5.8 5.7 5.5 5.4 5.3 5.3 5.4 5.8 6.0 5.9 5.6
8.6 8.5 8.2 7.7 7.3 7.4 8.8 8.5 9.0 8.9 9.0 8.8 8.6 8.8 9.0 8.7 8.3 8.2 7.9 7.9 8.3 8.1 7.8 7.6 7.3 7.1 6.8 6.9 6.7 6.7 6.5 6.3 6.2 6.0 6.0 5.9 5.6 5.7 5.7 5.5 5.6 5.4 5.2 5.3 5.6 6.1 6.1 5.7 5.5
8.6 8.7 8.3 7.2 6.6 8.0 8.8 8.8 8.9 8.9 8.8 8.8 8.9 8.9 8.8 8.5 8.5 8.3 8.0 8.1 8.3 8.2 7.6 7.5 7.2 7.1 7.0 7.1 7.0 6.6 6.2 6.3 6.1 6.2 6.2 6.0 5.8 5.6 5.7 5.7 5.6 5.4 5.2 5.2 5.5 5.6 5.8 5.7 5.4
8.8 8.6 8.8 8.5 8.0 8.0 8.4 8.5 8.5 8.7 8.7 8.9 8.9 8.7 8.9 8.7 8.7 8.3 8.1 8.0 8.1 8.2 7.5 7.2 7.0 7.0 6.7 6.9 7.0 6.6 6.5 6.5 6.4 6.3 6.1 6.0 5.9 5.7 5.9 5.8 5.7 5.4 5.3 5.1 5.4 5.5 5.6 5.5 5.5
9.0 9.1 8.9 8.6 7.5 7.7 8.1 8.4 8.9 8.9 9.0 9.0 8.6 8.7 8.5 8.4 8.5 8.4 8.2 7.8 7.7 8.0 7.4 7.2 7.1 6.9 6.6 6.7 7.0 6.8 6.7 6.6 6.5 6.2 6.1 6.0 5.9 5.6 5.9 5.8 5.6 5.4 5.3 5.0 5.1 5.4 5.6 5.6 5.6
9.3 9.0 9.0 8.9 8.9 7.5 6.7 8.3 8.8 8.9 9.2 8.8 8.3 8.4 8.3 8.1 8.0 8.2 8.3 7.8 7.8 7.7 7.5 7.1 6.9 6.5 6.0 6.9 7.1 6.8 6.8 6.6 6.4 6.1 5.9 6.0 5.9 5.6 5.4 5.7 5.6 5.5 5.3 5.0 5.0 5.1 5.2 5.3 5.3
9.3 9.2 9.3 8.9 8.9 9.2 8.8 8.1 8.8 8.9 9.3 9.0 8.9 8.2 8.3 8.3 8.8 7.9 7.7 7.7 7.9 7.6 7.6 7.3 6.3 5.5 5.6 6.5 6.9 6.8 6.8 6.7 6.4 6.2 5.8 5.9 5.8 5.7 5.3 5.4 5.5 5.4 5.2 5.1 5.2 5.3 5.2 5.0 4.9
Wind_Speed
7 10 5 3 4 5 3 5 6 9 10 12 11 7 5 7 2 3 7 12 17 13 17 17 19 20 19 18 17 17 17 17 16 16 15 14 13 14 13 13 13 11 10 9 9 11 11 10 13
4 8 3 1 4 6 3 9 15 13 12 18 17 14 11 4 8 12 9 13 16 14 15 16 19 19 19 18 17 17 17 16 16 16 15 14 13 13 11 12 11 9 8 9 10 11 12 10 12
7 4 3 3 3 6 5 14 14 11 12 10 6 5 5 6 14 11 14 17 14 12 15 18 19 19 19 18 17 17 16 16 15 15 15 14 14 12 10 10 9 8 7 8 9 11 12 12 13
4 4 4 3 9 4 10 16 17 14 11 10 10 8 5 7 8 10 19 17 14 12 16 19 19 19 19 18 17 17 17 16 14 13 13 13 13 12 10 8 7 7 7 7 8 9 9 11 13
4 4 5 5 4 6 6 19 14 9 7 11 5 4 4 4 17 21 20 16 17 12 15 17 19 18 18 18 17 17 16 15 14 12 12 12 11 10 9 8 7 6 7 7 8 8 8 7 10
4 3 5 4 7 7 4 11 13 14 14 14 12 10 4 15 19 17 15 13 13 15 15 17 19 19 19 18 17 17 16 14 13 12 11 10 9 10 10 8 7 7 8 7 6 7 7 7 8
7 4 4 5 4 3 8 8 13 16 14 8 14 8 8 11 17 17 16 14 11 12 12 15 15 18 18 17 16 15 15 14 13 11 11 9 8 7 8 8 8 7 8 8 6 6 7 8 10
4 4 3 4 1 5 5 4 13 16 5 15 16 7 9 13 18 15 12 11 11 8 6 7 11 13 14 14 16 15 14 14 14 13 11 12 10 9 8 7 7 8 8 8 7 7 9 10 10
3 4 3 2 3 4 6 9 5 9 12 4 6 11 15 21 18 14 11 10 8 7 6 6 7 12 13 12 13 14 14 13 12 12 11 11 10 10 10 9 9 9 8 8 9 10 9 10 11
4 3 8 5 1 5 10 16 8 6 9 6 12 15 20 21 18 15 11 9 8 10 9 10 9 11 13 11 11 11 9 8 9 9 9 9 9 9 9 11 12 11 10 10 10 10 9 9 9
5 5 6 7 14 9 8 10 3 15 0 14 22 21 19 19 16 16 15 16 15 14 11 11 9 13 13 10 12 11 11 10 10 10 10 11 10 11 10 12 11 14 13 9 10 9 9 9 10
4 8 7 7 8 8 8 4 6 3 7 17 22 21 15 17 16 15 15 16 14 14 14 11 8 6 8 9 8 10 8 10 9 13 14 12 8 6 7 9 11 11 12 10 10 9 11 10 11
4 4 6 7 5 5 10 7 7 2 14 16 18 17 16 15 12 12 15 14 14 14 12 11 8 7 6 5 5 6 6 9 11 12 15 14 7 4 5 5 8 11 10 10 7 8 7 8 10
5 3 4 4 2 2 6 4 9 7 17 19 20 17 15 17 15 10 9 11 12 12 11 10 6 6 8 5 4 3 4 7 9 11 14 15 12 8 5 5 5 8 7 11 10 8 6 4 6
4 3 7 9 1 3 11 4 8 17 19 20 19 18 15 18 15 14 15 11 14 10 7 11 11 10 10 5 6 6 6 8 5 9 15 14 15 11 8 4 4 8 8 9 9 7 5 2 3
6 5 2 9 3 6 4 6 2 18 20 19 18 17 15 14 17 9 13 14 11 7 12 13 10 12 9 7 5 2 4 6 7 8 13 14 17 13 8 4 5 11 9 7 4 3 3 4 4
6 5 6 10 12 6 4 4 5 14 18 18 17 16 13 12 7 7 9 10 10 14 15 12 9 7 7 8 5 3 5 3 4 7 10 13 13 15 7 4 6 8 5 4 4 4 3 3 4
5 5 3 5 3 5 2 5 5 11 17 18 15 11 11 13 13 9 9 8 13 14 13 8 6 5 2 3 5 2 1 0 4 5 8 11 7 8 6 5 5 3 3 4 4 4 4 3 4
6 1 5 3 4 4 5 4 8 8 7 10 11 11 12 13 7 10 12 9 16 14 10 9 9 5 3 1 3 2 2 3 1 2 9 10 5 3 2 1 3 2 4 5 8 5 7 4 2
3 3 6 4 4 1 4 5 6 9 13 16 14 13 12 7 9 8 9 11 12 14 10 8 8 7 4 2 3 3 3 3 1 3 10 12 2 2 2 1 3 4 3 4 4 5 3 3 5
4 3 4 8 2 4 4 8 7 4 3 11 10 11 13 15 13 10 10 11 14 12 11 11 11 8 5 3 3 4 4 4 4 4 4 2 3 5 3 3 3 4 3 4 4 3 5 4 3
2 2 3 4 5 1 4 4 6 9 6 13 8 12 13 10 11 8 8 9 12 11 10 11 10 8 4 5 5 3 2 2 2 3 2 5 8 8 9 7 6 5 3 4 4 4 4 4 4
8 1 4 3 4 5 9 4 7 6 7 2 6 12 9 9 14 11 8 9 13 12 11 10 9 4 2 3 4 4 2 3 4 2 4 6 5 8 8 6 6 5 3 4 5 4 4 4 4
1 5 8 6 3 4 5 4 5 1 4 5 3 4 7 10 11 9 7 12 11 12 11 10 10 6 4 3 2 4 6 3 3 4 4 3 3 3 4 7 5 5 4 4 4 3 5 5 4
5 7 4 4 4 5 1 2 8 5 7 9 9 9 10 13 13 11 10 11 10 11 12 10 10 8 8 6 6 6 4 4 6 4 3 4 3 3 5 5 6 5 5 2 2 1 1 2 4
4 8 6 4 3 5 5 3 5 5 8 1 7 10 12 11 10 12 10 10 10 11 10 8 7 8 8 8 7 5 6 4 4 4 4 3 3 3 5 5 6 7 5 5 5 3 3 1 1
2 3 6 5 1 3 3 3 5 9 14 16 13 4 9 10 11 13 9 8 9 10 10 8 6 6 6 7 6 6 6 6 5 5 4 2 3 4 6 6 6 6 8 7 6 4 4 4 3
8 4 2 3 1 2 5 2 3 6 3 9 10 10 12 12 3 10 9 8 7 10 8 8 8 7 6 6 5 6 6 6 6 5 5 4 5 6 5 5 6 7 8 8 8 7 8 9 6
1 2 6 5 5 5 2 5 6 6 3 5 6 8 7 5 1 3 8 7 8 8 7 7 5 5 3 6 6 6 6 7 6 5 3 5 6 6 6 6 6 7 7 7 7 8 8 9 8
4 6 6 5 5 2 5 4 7 5 6 5 5 9 6 4 3 10 7 10 8 7 5 6 4 6 2 5 6 6 7 7 6 4 5 5 5 6 6 6 6 6 8 6 7 8 8 9 8
Wind_Direction
227 190 164 165 67 67 56 51 117 100 68 74 72 70 84 35 113 160 115 143 129 133 142 140 137 139 140 135 131 126 125 124 124 120 118 119 123 123 124 126 128 131 132 143 148 139 139 141 134
181 157 179 87 91 85 300 90 84 97 123 101 95 88 60 74 75 116 104 137 131 134 133 137 134 135 136 137 133 134 133 133 132 129 127 125 130 130 128 130 130 126 126 135 143 152 149 152 146
167 224 91 84 122 124 143 119 122 118 109 96 95 55 71 104 117 135 131 136 129 125 126 135 136 138 138 138 137 139 138 140 140 137 134 133 134 136 136 132 130 125 130 132 148 155 156 162 159
13 13 28 74 122 200 122 135 125 118 94 101 110 71 55 140 127 137 137 133 129 128 128 131 135 140 142 143 143 145 145 145 145 144 144 139 142 147 148 140 137 137 139 146 157 158 160 175 164
44 46 40 355 86 115 127 144 135 101 88 102 101 89 64 60 116 132 143 141 136 131 130 131 136 140 144 146 149 150 149 150 152 151 145 146 156 159 154 153 155 162 162 162 173 166 172 188 169
52 88 44 342 311 118 106 133 122 111 117 106 93 107 85 126 126 142 137 141 144 138 139 141 142 144 146 151 154 152 151 153 154 154 156 158 163 152 159 163 166 174 172 161 167 171 173 183 169
106 90 181 224 314 342 152 133 131 133 139 131 139 115 136 143 145 143 139 136 130 133 140 145 148 151 151 152 152 152 157 157 159 167 163 166 168 168 172 175 174 177 177 174 176 168 172 176 179
95 108 344 127 82 264 143 98 149 144 137 133 142 138 168 139 133 131 126 128 127 130 130 133 150 148 150 155 158 159 165 167 168 176 177 176 182 184 195 193 189 196 196 193 186 185 179 177 171
156 77 97 222 307 287 155 114 30 92 129 189 182 137 140 139 130 126 119 123 127 136 140 151 159 147 152 157 164 166 173 173 176 181 183 185 193 210 202 204 209 206 208 203 209 203 187 182 183
86 92 221 209 102 213 154 126 142 106 107 86 96 117 127 139 135 138 147 149 152 161 174 179 174 164 159 163 169 171 183 183 190 199 206 206 212 216 220 221 221 219 217 214 210 215 199 186 198
166 181 206 264 247 197 154 148 91 124 69 156 143 147 145 143 146 149 162 168 176 182 183 189 182 173 165 168 172 175 181 198 205 214 219 220 225 232 246 235 238 231 227 221 211 210 204 188 200
199 203 169 244 182 121 159 111 130 201 188 161 148 151 149 154 156 160 167 176 177 184 190 184 183 165 177 160 172 178 179 199 212 216 222 217 220 234 242 196 221 220 226 215 221 213 203 201 215
270 310 213 264 139 148 134 198 158 200 131 146 143 151 153 165 172 174 173 176 173 181 186 186 170 162 170 160 175 185 193 198 214 226 229 220 210 222 195 202 200 217 235 213 217 217 210 202 214
256 340 302 345 227 248 112 139 124 120 139 152 156 165 161 172 181 186 180 179 179 177 174 172 120 65 66 27 358 323 286 237 220 229 235 225 219 216 181 178 194 186 199 215 207 200 201 198 194
312 6 344 307 75 148 114 86 172 155 155 160 171 173 172 179 180 181 190 181 183 189 154 89 94 102 73 35 46 23 15 4 331 266 220 222 229 222 200 178 202 213 208 205 204 214 186 176 229
11 49 340 268 196 228 87 219 226 163 161 171 177 181 183 181 185 176 178 184 182 128 106 120 124 124 140 173 125 28 358 1 324 323 274 244 228 222 207 199 209 210 205 203 208 208 213 191 204
356 260 225 302 193 155 134 218 196 176 173 176 181 186 181 175 171 165 157 173 143 127 135 134 124 119 175 168 139 118 336 331 314 323 286 239 219 221 212 224 235 197 201 219 205 220 207 201 222
259 304 271 224 238 149 120 209 197 182 174 179 185 183 169 169 181 169 166 147 127 123 113 118 139 161 183 74 137 154 229 246 290 343 339 273 223 228 224 237 261 201 195 204 224 223 215 215 220
247 291 331 327 234 122 209 188 198 175 172 177 182 170 168 171 173 160 169 132 114 124 127 140 141 164 156 243 69 127 177 244 88 12 349 293 176 138 241 246 267 234 199 215 197 210 214 227 178
28 355 314 320 354 25 230 289 197 164 184 178 174 168 161 140 152 160 144 137 136 145 133 141 145 184 190 183 211 177 190 110 88 341 320 283 202 167 237 291 282 271 254 236 223 197 187 204 175
326 262 303 258 342 11 61 331 340 325 145 180 173 159 164 162 154 155 133 124 127 142 146 153 174 201 153 151 80 8 7 20 10 328 280 271 21 52 46 6 315 283 235 237 235 224 193 189 185
257 203 255 42 59 287 56 285 322 317 185 176 152 163 175 158 154 149 135 130 134 145 152 147 173 193 174 164 117 87 129 177 275 268 354 2 51 59 42 14 348 307 282 261 241 201 205 167 172
236 302 306 19 67 43 347 62 275 345 60 60 182 188 169 156 153 147 144 117 125 136 144 151 163 207 156 159 128 147 232 246 277 340 52 72 50 37 18 352 314 302 290 257 245 239 208 202 156
189 49 30 46 69 15 242 123 283 212 209 168 170 124 146 149 143 138 119 120 127 136 143 150 164 189 199 216 187 200 233 221 133 62 72 49 34 353 352 339 318 304 302 270 265 244 220 210 196
73 57 358 358 19 219 33 90 241 269 212 174 147 202 153 154 148 146 136 134 134 132 142 155 168 178 187 215 225 232 199 125 106 99 86 61 26 0 347 338 343 350 322 349 328 336 226 211 194
199 144 151 198 204 252 324 243 267 314 308 162 174 156 147 148 146 144 147 141 138 139 134 135 149 146 156 167 142 122 127 100 92 97 81 65 38 13 1 3 6 1 4 19 34 23 355 317 188
231 141 191 120 2 54 276 332 342 26 24 32 33 52 151 145 149 146 125 140 134 139 144 145 148 135 146 141 130 121 116 106 110 95 83 52 36 45 24 20 24 8 24 26 31 25 17 53 64
154 173 46 8 122 283 318 206 236 27 325 83 48 59 53 33 49 133 136 146 141 146 148 147 165 153 165 147 138 141 125 116 108 95 86 57 48 54 37 29 27 29 30 25 36 32 29 54 42
320 307 60 119 134 164 183 270 301 184 146 113 172 103 93 54 74 200 153 131 144 135 151 152 145 119 164 156 150 146 113 119 111 109 92 69 62 44 30 51 39 39 44 30 37 40 35 47 51
178 210 141 125 266 180 150 262 310 231 179 184 189 166 158 145 172 133 178 142 108 100 99 88 77 100 335 189 150 135 115 126 129 134 98 84 95 69 50 57 55 47 49 45 53 53 49 53 48